TimeCDT,TemperatureF,Dew PointF,Humidity,Sea Level PressureIn,VisibilityMPH,Wind Direction,Wind SpeedMPH,Gust SpeedMPH,PrecipitationIn,Events,Conditions,WindDirDegrees,DateUTC
12:54 AM,62.1,60.1,93,30.07,10.0,Calm,Calm,-,N/A,,Clear,0,2013-07-11 05:54:00
1:54 AM,61.0,59.0,93,30.07,9.0,Calm,Calm,-,N/A,,Clear,0,2013-07-11 06:54:00
2:54 AM,59.0,57.9,96,30.08,7.0,Calm,Calm,-,N/A,,Clear,0,2013-07-11 07:54:00
3:54 AM,57.9,55.9,93,30.08,8.0,Calm,Calm,-,N/A,,Clear,0,2013-07-11 08:54:00
4:19 AM,57.2,57.2,100,30.09,1.5,Calm,Calm,-,N/A,,Clear,0,2013-07-11 09:19:00
4:29 AM,57.2,57.2,100,30.10,4.0,Calm,Calm,-,N/A,,Clear,0,2013-07-11 09:29:00
4:54 AM,57.0,55.9,96,30.09,5.0,Calm,Calm,-,N/A,,Clear,0,2013-07-11 09:54:00
5:24 AM,57.2,55.4,94,30.10,4.0,Calm,Calm,-,N/A,,Partly Cloudy,0,2013-07-11 10:24:00
5:54 AM,55.9,55.0,97,30.10,7.0,Calm,Calm,-,N/A,,Clear,0,2013-07-11 10:54:00
6:54 AM,59.0,57.9,96,30.11,7.0,Calm,Calm,-,N/A,,Clear,0,2013-07-11 11:54:00
7:54 AM,66.0,59.0,78,30.12,10.0,Calm,Calm,-,N/A,,Clear,0,2013-07-11 12:54:00
8:54 AM,72.0,59.0,64,30.12,10.0,Calm,Calm,-,N/A,,Clear,0,2013-07-11 13:54:00
9:54 AM,75.9,55.9,50,30.11,10.0,Calm,Calm,-,N/A,,Clear,0,2013-07-11 14:54:00
10:54 AM,77.0,54.0,45,30.11,10.0,SE,6.9,-,N/A,,Clear,130,2013-07-11 15:54:00
11:54 AM,78.1,52.0,40,30.12,10.0,East,5.8,-,N/A,,Clear,80,2013-07-11 16:54:00
12:54 PM,80.1,55.0,42,30.10,10.0,ESE,6.9,-,N/A,,Clear,120,2013-07-11 17:54:00
1:54 PM,81.0,55.0,41,30.08,10.0,Variable,4.6,-,N/A,,Clear,0,2013-07-11 18:54:00
2:54 PM,81.0,54.0,39,30.08,10.0,ESE,11.5,-,N/A,,Clear,120,2013-07-11 19:54:00
3:54 PM,82.0,55.0,39,30.07,10.0,SE,8.1,-,N/A,,Clear,130,2013-07-11 20:54:00
4:54 PM,82.0,54.0,38,30.06,10.0,SE,11.5,-,N/A,,Clear,140,2013-07-11 21:54:00
5:54 PM,81.0,55.9,42,30.06,10.0,SE,10.4,-,N/A,,Clear,140,2013-07-11 22:54:00
6:54 PM,80.1,55.9,43,30.05,10.0,SSE,8.1,-,N/A,,Clear,150,2013-07-11 23:54:00
7:54 PM,78.1,57.0,48,30.04,10.0,SSE,10.4,-,N/A,,Clear,160,2013-07-12 00:54:00
8:54 PM,73.9,57.9,57,30.04,10.0,South,6.9,-,N/A,,Clear,170,2013-07-12 01:54:00
9:54 PM,72.0,57.9,61,30.04,10.0,SE,5.8,-,N/A,,Clear,140,2013-07-12 02:54:00
10:54 PM,70.0,59.0,68,30.05,10.0,SSE,4.6,-,N/A,,Clear,160,2013-07-12 03:54:00
11:54 PM,69.1,59.0,70,30.05,10.0,SSE,5.8,-,N/A,,Clear,160,2013-07-12 04:54:00